Regional Weather Roundup
Issued by NWS

Home | Current Version | Previous Version | Text Only | Print | Product List | Glossary Off
Versions: 1 2 3 4 5 6 7 8 9 10 11 12 13 14 15 16 17 18 19 20 21 22 23 24 25 26 27 28 29 30 31 32 33 34 35 36 37 38 39 40 41 42 43 44 45 46 47 48 49 50

000
ASUS43 KLOT 020708
RWRIL

ILLINOIS REGIONAL WEATHER ROUNDUP
NATIONAL WEATHER SERVICE CHICAGO/ROMEOVILLE IL
200 AM CDT TUE JUN 02 2015

NOTE: "FAIR" INDICATES FEW OR NO CLOUDS BELOW 12,000 FEET WITH NO
SIGNIFICANT WEATHER AND/OR OBSTRUCTIONS TO VISIBILITY.

* THESE STATIONS ARE NOT UNDER NWS QUALITY CONTROL. THEY ALSO MAY NOT
  REPORT WEATHER SUCH AS PRECIPITATION OR FOG.

ILZ001-002-007-009-015-016-024-020800-
NORTHWEST ILLINOIS

CITY           SKY/WX    TMP DP  RH WIND       PRES   REMARKS
MOLINE         CLEAR     52  47  83 E7        30.16R
STERLING*      CLEAR     46  43  87 E3        30.18S
SAVANNA*       CLEAR     51  39  64 E5        30.18S
$$

ILZ003-004-008-010-011-017-018-020800-
NORTH CENTRAL ILLINOIS

CITY           SKY/WX    TMP DP  RH WIND       PRES   REMARKS
ROCKFORD       PTCLDY    48  36  63 CALM      30.21S
FREEPORT*      CLEAR     45  38  78 E3        30.20S
ROCHELLE*      CLEAR     46  37  71 E6        30.18S
DE KALB*       CLEAR     43  36  77 NE3       30.18F
PERU*          CLEAR     49  38  66 E7        30.17F
$$

ILZ005-006-012>014-019>023-020800-
NORTHEAST ILLINOIS

CITY           SKY/WX    TMP DP  RH WIND       PRES   REMARKS
CHICAGO-OHARE  CLEAR     45  37  73 N3        30.17F
CHICAGO-MIDWAY CLEAR     49  39  68 N3        30.17F
AURORA         CLEAR     45  36  70 NE3       30.18S
LANSING*       CLEAR     42  38  83 CALM      30.17F
JOLIET*        CLEAR     47  40  77 CALM      30.17S
WAUKEGAN       CLEAR     39  37  92 CALM      30.19S
DUPAGE AIRPORT CLEAR     42  36  79 N5        30.17F
KANKAKEE*      CLEAR     45  41  88 E3        30.17S
WHEELING       CLEAR     43  38  82 N3        30.20F
MORRIS*        CLEAR     46  40  78 CALM      30.14S
ROMEOVILLE*    CLEAR     45  38  76 CALM      30.17S
NORTHERLY ISL    N/A     48  40  73 MISG        N/A
$$

LMZ740>746-020800-
SOUTHERN LAKE MICHIGAN

STATION/POSITION SKY/WX   TEMP    WIND        PRES    VSBY  WAVE
                          AIR SEA DIR/SP/G                  HT/PER
                          (F)     (DEG/KT/KT) (MB)    (MI)  (FT/S)
SOUTHERN BUOY              43 38   50/  8/  8 1022.7F         1/ 4
HARRISON CRIB              49     340/  8/  9   N/A
BURNHAM HARBOR             48     360/  6/  7   N/A
CALUMET HARBOR             47                   N/A
BURNS HARBOR                       20/  4/  5 1022.4F
MICHIGAN CITY              49     120/  2/  3   N/A
MICHIGAN CITY 6N           49 56   CALM  /  2   N/A           2/ 5
ST. JOSEPH                 54 55  140/ 10/ 12   N/A           1/ 4
$$

ILZ025>027-034>036-040-047-049-050-058-095>099-020800-
WEST-CENTRAL ILLINOIS

CITY           SKY/WX    TMP DP  RH WIND       PRES   REMARKS
QUINCY         CLEAR     56  53  90 E5        30.13S
GALESBURG*     MOCLDY    55  52  92 E3        30.16R
MACOMB*        CLEAR     51  51  99 E3        30.16S
JACKSONVILLE*  CLEAR     55  52  92 E7        30.13S
PITTSFIELD*    CLEAR     56  53  90 CALM      30.14S
$$

ILZ028>032-037-038-041>044-048-051>054-059>061-020800-
CENTRAL ILLINOIS

CITY           SKY/WX    TMP DP  RH WIND       PRES   REMARKS
PONTIAC        CLOUDY    51  44  79 E5        30.18S
BLOOMINGTON    CLOUDY    51  47  86 E8        30.17S
DECATUR        CLEAR     53  52  96 NE7       30.14S
PEORIA         CLEAR     54  45  71 E9        30.16S
LACON*         CLEAR     49  41  75 CALM      30.16S
LINCOLN*       PTCLDY    54  51  90 CALM      30.14S
SPRINGFIELD    CLEAR     54  51  90 NE7       30.14S
TAYLORVILLE    CLEAR     54  54 100 E3        30.13S
$$

ILZ033-039-045-046-055>057-062-063-020800-
EAST-CENTRAL ILLINOIS

CITY           SKY/WX    TMP DP  RH WIND       PRES   REMARKS
CHAMPAIGN      PTCLDY    56  52  86 E7        30.15F
DANVILLE*      CLEAR     53  51  93 CALM      30.13F
RANTOUL*       CLOUDY    56  49  79 NE5       30.16S
MATTOON        CLEAR     52  50  93 NE5       30.12F
PARIS*         CLEAR     53  51  92 NE5       30.15S
$$

ILZ079-100>102-020800-
SOUTHWEST ILLINOIS

CITY           SKY/WX    TMP DP  RH WIND       PRES   REMARKS
ALTON          PTCLDY    60  60 100 E3        30.12R
BELLEVILLE     MOCLDY    59  59 100 CALM      30.10S
CAHOKIA*       CLOUDY    61  57  87 SE5       30.12R
SPARTA*        CLOUDY    59  55  87 E6        30.11F
$$

ILZ064>066-069>071-074>076-080>082-084>086-088>090-092>094-020800-
SOUTH-CENTRAL ILLINOIS

CITY           SKY/WX    TMP DP  RH WIND       PRES   REMARKS
CARBONDALE     CLOUDY    59  54  83 NE5       30.10F
CAIRO*         CLOUDY    60  57  88 CALM      30.10S
EFFINGHAM*     CLEAR     54  52  92 CALM      30.14S FOG
MARION         CLOUDY    59  55  88 NE5       30.11S
MT. VERNON     CLOUDY    59  52  77 NE3       30.12S
CENTRALIA*     CLOUDY    59  54  82 E7        30.11F
SALEM*         CLOUDY    61  56  83 NE3       30.12F
$$

ILZ067-068-072-073-078-083-087-091-020800-
SOUTHEAST ILLINOIS

CITY           SKY/WX    TMP DP  RH WIND       PRES   REMARKS
LAWRENCEVILLE  CLOUDY    58  52  80 E7        30.13S
FLORA*         MOCLDY    58  53  83 E6        30.12F
FAIRFIELD*     CLOUDY    59  55  84 NE6       30.10F
HARRISBURG*    CLOUDY    58  57  94 NE3       30.11F
ROBINSON*      CLOUDY    58  52  80 E7        30.14S
CARMI*         CLOUDY    61  52  72 E8        30.10S
$$

ABBREVIATIONS USED IN REMARKS
   TC - TEMPERATURE IN CELSIUS
  WCI - WIND CHILL INDEX
   HX - HEAT INDEX
  VSB - VISIBILITY
$$



USA.gov is the U.S. government's official web portal to all federal, state and local government web resources and services.